This is the latest recevied weather packets stored in our database for station/object KC0UFP. If no packets are shown the sender has not sent any weather packets the latest 10 day(s).
| Time | Temp. | Humidity | Pressure | Rain* | Wind** | Luminosity | Snow |
|---|---|---|---|---|---|---|---|
| 1778017018 | 18.33° C | 98% | 1006.1 hPa | 0.51 mm | - | 43 W/m² | - |
| 1778016715 | 18.33° C | 97% | 1006.4 hPa | 0 mm | - | 42 W/m² | - |
| 1778016411 | 18.33° C | 96% | 1006.6 hPa | 0 mm | - | 33 W/m² | - |
| 1778016108 | 18.33° C | 95% | 1006.3 hPa | 0 mm | - | 44 W/m² | - |
| 1778015805 | 18.89° C | 94% | 1006.5 hPa | 0 mm | - | 51 W/m² | - |
| 1778015502 | 18.89° C | 93% | 1006.6 hPa | 0 mm | - | 39 W/m² | - |
| 1778015199 | 18.89° C | 93% | 1006.6 hPa | 0 mm | - | 44 W/m² | - |
| 1778014896 | 18.89° C | 93% | 1006.8 hPa | 0 mm | - | 37 W/m² | - |
| 1778014593 | 18.89° C | 93% | 1006.8 hPa | 0 mm | - | 37 W/m² | - |
| 1778014291 | 18.33° C | 92% | 1006.6 hPa | 0 mm | - | 38 W/m² | - |
| 1778013988 | 18.33° C | 93% | 1006.6 hPa | 0 mm | - | 38 W/m² | - |
| 1778013686 | 18.33° C | 93% | 1006.4 hPa | 0 mm | - | 41 W/m² | - |
| 1778013382 | 18.33° C | 93% | 1006.8 hPa | 0 mm | - | 41 W/m² | - |
| 1778013080 | 18.33° C | 93% | 1006.4 hPa | 0 mm | - | 39 W/m² | - |
| 1778012775 | 18.33° C | 92% | 1006.8 hPa | 0 mm | - | 43 W/m² | - |
| 1778012471 | 18.33° C | 92% | 1006.7 hPa | 0 mm | - | 47 W/m² | - |
| 1778012168 | 18.33° C | 92% | 1006.7 hPa | 0 mm | - | 50 W/m² | - |
| 1778011866 | 18.33° C | 92% | 1006.9 hPa | 0 mm | - | 51 W/m² | - |
| 1778011564 | 18.33° C | 92% | 1007 hPa | 0 mm | - | 50 W/m² | - |
| 1778011260 | 18.33° C | 92% | 1006.8 hPa | 0 mm | - | 61 W/m² | - |
| 1778010956 | 18.33° C | 92% | 1006.9 hPa | 0 mm | - | 66 W/m² | - |
| 1778010654 | 18.33° C | 92% | 1006.8 hPa | 0 mm | - | 64 W/m² | - |
| 1778010351 | 18.33° C | 92% | 1006.9 hPa | 0 mm | - | 65 W/m² | - |
| 1778010046 | 18.33° C | 92% | 1007 hPa | 0 mm | - | 66 W/m² | - |
| 1778009744 | 17.78° C | 92% | 1006.8 hPa | 0 mm | - | 62 W/m² | - |
* Rain latest hour (hover to see other rain measurements)
** Current wind speed in m/s (hover to see current wind gust speed)